www.pogodaiklimat.ru

Погода и климат >> Архив погоды >> Австрия >> Енбах


ПОГОДА в Енбахе

  • Прогноз погоды в Енбахе
  • Монитор погоды в Енбахе

АРХИВ ПОГОДЫ в Енбахе

Время (UTC), дата Ветер
(напр.,м/с)
 
Видим.   Явления Облачность Т
(С)
Тd
(С)
f
(%)
Тe
(С)
Тes
(С)
Комфортность P
(гПа)
Po
(гПа)
Тmin
(С)
Tmax
(С)
R
(мм)
R24
(мм)
S
(см)
13 18.08 В 3 н/о н/о +29.9 +13.5 37 +31 +31 жарко 1008.3 949.8
14 18.08 В 4 н/о н/о +30.6 +13.6 35 +32 +32 жарко 1007.8 949.5
15 18.08 СВ 3 н/о н/о +31.6 +12.2 31 +32 +32 жарко 1007.2 949.1
16 18.08 СВ 3 н/о н/о +30.3 +14.2 37 +32 +32 жарко 1007.5 949.2 0.0
17 18.08 СВ 4 н/о н/о +29.2 +13.2 37 +31 +31 жарко 1007.8 949.2
18 18.08 СВ 2 н/о н/о +26.3 +14.9 49 +29 +29 жарко 1008.6 949.5 +16.9 +31.8 0.0
19 18.08 СЗ 1 н/о н/о +23.4 +16.0 63 +28 +28 душно 1009.7 950.0
20 18.08 СВ 1 н/о н/о +21.9 +16.8 73 +26 +26 душно 1010.4 950.4
21 18.08 штиль 0 н/о н/о +20.4 +16.1 76 +23 +23 комфорт 1011.3 950.9
22 18.08 штиль 0 н/о н/о +19.5 +16.1 81 +21 +21 комфорт 1011.7 951.1
23 18.08 С 1 н/о н/о +19.4 +15.9 80 +22 +22 комфорт 1012.5 951.8
00 19.08 З 1 н/о н/о +19.0 +15.5 80 +21 +21 комфорт 1013.4 952.6
01 19.08 СВ 4 н/о н/о +23.4 +13.8 55 +27 +27 душно 1013.4 953.4
02 19.08 В 4 н/о н/о +21.9 +14.3 62 +25 +25 комфорт 1014.4 954.1
03 19.08 С 3
{15}
н/о н/о +21.9 +12.6 56 +24 +24 комфорт 1015.8 955.3
04 19.08 СВ 6 н/о н/о +20.6 +13.4 63 +23 +23 комфорт 1016.4 955.7
05 19.08 В 4 н/о н/о +18.8 +14.1 74 +20 +20 1017.1 956.0
06 19.08 В 5
{15}
н/о н/о +19.1 +13.9 72 +20 +20 1017.4 956.3 +18.6 +27.0
07 19.08 З 1 н/о осадки н/о +17.3 +15.4 89 +18 +18 1018.9 957.4 1
08 19.08 З 1 н/о осадки н/о +17.2 +15.7 91 +18 +18 1019.7 958.1 2
09 19.08 З 1 н/о ливневой дождь {осадки} н/о +17.6 +16.2 91 +19 +19 1020.1 958.6 4
10 19.08 СВ 1 н/о осадки н/о +18.4 +15.5 83 +20 +20 1019.4 958.1 0.8
11 19.08 СВ 3 н/о н/о +19.4 +15.9 80 +21 +21 комфорт 1018.5 957.5
12 19.08 З 1 н/о {ливн. осадки} н/о +19.6 +16.3 81 +23 +23 комфорт 1018.5 957.5 5
13 19.08 В 1 н/о н/о +20.7 +15.9 74 +25 +25 комфорт 1018.3 957.5 0.0
14 19.08 СВ 2 н/о н/о +22.5 +15.1 63 +26 +26 жарко 1017.2 956.8
15 19.08 СВ 2 н/о н/о +23.0 +14.9 60 +27 +27 душно 1016.4 956.2 0.0
16 19.08 СВ 3 н/о н/о +23.5 +15.1 59 +26 +26 жарко 1015.9 955.8
17 19.08 С 4 н/о н/о +22.4 +14.4 61 +26 +26 жарко 1016.3 956.0
18 19.08 СВ 3 н/о н/о +21.4 +14.2 64 +24 +24 комфорт 1016.9 956.3 +17.0 +23.8 5
19 19.08 З 4 н/о н/о +20.2 +14.9 72 +23 +23 комфорт 1019.1 958.2 0.0
20 19.08 В 2 н/о в посл. час осадки н/о +18.2 +15.9 86 +19 +19 1019.1 957.8 0.4
21 19.08 З 2 н/о {осадки} н/о +17.2 +15.7 91 +18 +18 1020.5 958.9 0.4
22 19.08 З 1 н/о н/о +16.8 +15.5 92 +18 +18 1020.7 959.0
23 19.08 З 1 н/о н/о +16.6 +15.4 93 +17 +17 1020.5 958.8
00 20.08 ЮЗ 3 н/о {осадки} н/о +16.6 +15.3 92 +16 +16 1020.8 959.0 0.4
01 20.08 ЮЗ 2 н/о н/о +16.8 +15.3 91 +17 +17 1020.9 959.2
02 20.08 З 4 н/о осадки н/о +16.8 +15.3 91 +16 +16 1021.0 959.3 2
03 20.08 СВ 1 н/о в посл. час осадки н/о +16.8 +15.6 93 +18 +18 1020.8 959.1 2
04 20.08 СЗ 1 н/о н/о +16.5 +15.5 94 +17 +17 1020.8 959.0
05 20.08 З 1 н/о н/о +16.5 +15.5 94 +17 +17 1020.8 959.0
06 20.08 З 1 н/о {осадки} н/о +16.8 +15.7 93 +18 +18 1020.4 958.7 +16.4 +21.6 3
07 20.08 ЮЗ 2 н/о н/о +17.2 +15.6 90 +18 +18 1020.2 958.6
08 20.08 ЮЗ 2 н/о н/о +17.5 +15.6 89 +18 +18 1020.2 958.7
09 20.08 ЮЗ 3 н/о осадки н/о +17.4 +15.8 90 +17 +17 1020.9 959.3 0.1
10 20.08 З 1 н/о в посл. час осадки н/о +17.8 +16.3 91 +19 +19 1020.8 959.3 0.8
11 20.08 ЮЗ 1 н/о осадки н/о +18.3 +16.4 89 +20 +20 1020.3 958.9 0.1
12 20.08 В 4 н/о {ливн. осадки} н/о +19.0 +16.2 84 +20 +20 1019.4 958.2 1
13 20.08 СВ 5 н/о н/о +20.8 +16.4 76 +24 +24 комфорт 1018.4 957.7
14 20.08 В 5 н/о н/о +21.7 +15.5 68 +25 +25 комфорт 1017.9 957.3
15 20.08 СВ 4 н/о н/о +22.3 +16.5 70 +27 +27 душно 1017.5 957.1
16 20.08 СВ 3 н/о н/о +21.7 +15.6 68 +25 +25 комфорт 1018.2 957.6
17 20.08 С 2 н/о н/о +21.4 +14.0 63 +24 +24 комфорт 1018.8 958.1
18 20.08 З 4
{16}
н/о н/о +20.8 +10.7 52 +23 +23 комфорт 1020.2 959.2 +16.6 +22.4 1
19 20.08 СЗ 2
{17}
н/о н/о +19.3 +11.1 59 +21 +21 комфорт 1022.2 960.8 0.0
20 20.08 В 5 н/о ливневой дождь {осадки} н/о +16.4 +12.8 79 +15 +15 1024.4 962.3 0.6
21 20.08 СВ 3
{17}
н/о в посл. час осадки {ливн. осадки} н/о +15.6 +12.4 81 +15 +15 1026.0 963.6 2
22 20.08 СВ 6 н/о осадки н/о +15.2 +11.8 80 +14 +14 1026.8 964.3 0.5
23 20.08 В 5 н/о осадки н/о +14.1 +12.5 90 +12 +12 1027.2 964.5 2
00 21.08 В 4
{17}
н/о в посл. час осадки {ливн. осадки} н/о +14.2 +12.5 90 +13 +13 1027.5 964.8 5
01 21.08 СВ 4 н/о осадки н/о +14.0 +12.3 89 +12 +12 1027.6 964.8 0.0
02 21.08 СВ 4 н/о осадки н/о +13.6 +11.8 89 +12 +12 1028.0 965.1 2
03 21.08 СВ 3 н/о осадки н/о +13.5 +11.8 89 +12 +12 1028.2 965.3 3
04 21.08 СВ 5 н/о осадки н/о +13.3 +11.7 90 +11 +11 1028.5 965.5 3
05 21.08 В 5 н/о осадки н/о +13.1 +11.9 92 +11 +11 1028.5 965.5 0.9
06 21.08 В 4
{17}
н/о ливневой дождь {осадки} н/о +13.1 +11.6 91 +11 +11 1028.8 965.7 +13.1 +21.1 13
07 21.08 В 5 н/о в посл. час осадки н/о +13.5 +11.6 88 +11 +11 1028.5 965.5 0.0
08 21.08 СВ 5 н/о н/о +14.6 +11.7 83 +13 +13 1028.1 965.4
09 21.08 В 5 н/о {осадки} н/о +15.2 +11.9 81 +14 +14 1028.1 965.5 0.0
10 21.08 СВ 5 н/о н/о +16.8 +11.6 71 +16 +16 1027.5 965.3
11 21.08 СВ 5 н/о н/о +17.2 +11.3 68 +17 +17 1026.9 964.8
12 21.08 СВ 5 н/о {осадки} н/о +18.1 +11.3 64 +18 +18 1026.2 964.3 0.0
13 21.08 СВ 5 н/о н/о +18.0 +12.0 68 +18 +18 1026.0 964.1
14 21.08 СВ 4 н/о н/о +18.3 +12.2 68 +18 +18 1025.8 964.0
15 21.08 СВ 4 н/о н/о +18.1 +12.3 69 +18 +18 1025.8 964.0
16 21.08 СВ 5 н/о н/о +17.8 +11.6 67 +17 +17 1025.9 964.0
17 21.08 СВ 6 н/о н/о +17.4 +11.9 70 +17 +17 1025.8 963.8
18 21.08 СВ 4 н/о н/о +17.0 +11.8 71 +17 +17 1025.8 963.7 +13.1 +18.3 0.0
19 21.08 СВ 4 н/о н/о +16.8 +11.8 72 +16 +16 1026.2 964.1
20 21.08 СВ 3 н/о осадки н/о +15.3 +12.8 85 +15 +15 1026.5 964.1 4
21 21.08 СЗ 1 н/о в посл. час осадки н/о +14.8 +13.0 89 +15 +15 1027.1 964.5 4
22 21.08 СВ 1 н/о ливневой дождь н/о +14.5 +13.2 92 +15 +15 1027.0 964.4 3
23 21.08 С 1 н/о в посл. час осадки н/о +14.3 +13.0 92 +15 +15 1026.2 963.6 0.9
00 22.08 штиль 0 н/о {ливн. осадки} н/о +14.2 +13.0 92 +14 +14 1025.6 963.0 7
01 22.08 ЮЗ 2 н/о н/о +13.7 +12.7 94 +13 +13 1025.1 962.4
02 22.08 З 2 н/о н/о +13.7 +12.6 93 +13 +13 1025.2 962.5
03 22.08 СЗ 1 н/о н/о +13.7 +12.7 94 +14 +14 1024.9 962.2
04 22.08 ЮЗ 1 н/о н/о +14.0 +12.9 93 +14 +14 1024.8 962.2
05 22.08 штиль 0 н/о н/о +14.1 +13.0 93 +14 +14 1024.8 962.2
06 22.08 штиль 0 н/о н/о +14.5 +13.1 91 +14 +14 1024.9 962.4 +13.7 +17.1 7
07 22.08 штиль 0 н/о н/о +15.8 +13.2 85 +16 +16 1024.3 962.1
08 22.08 штиль 0 н/о н/о +17.2 +13.2 77 +17 +17 1024.4 962.5
09 22.08 СВ 1 н/о н/о +18.6 +13.0 70 +20 +20 1024.0 962.4
10 22.08 В 2 н/о н/о +19.6 +13.3 67 +22 +22 комфорт 1023.6 962.2
11 22.08 В 3 н/о н/о +20.9 +14.1 65 +24 +24 комфорт 1022.5 961.5
12 22.08 В 4 н/о н/о +22.0 +14.7 63 +25 +25 комфорт 1021.9 961.1
13 22.08 СВ 5 н/о н/о +22.7 +15.3 63 +27 +27 душно 1021.3 960.7
14 22.08 В 6 н/о н/о +22.8 +15.4 63 +27 +27 душно 1020.8 960.3
15 22.08 СВ 6 н/о н/о +22.2 +14.9 63 +26 +26 душно 1021.0 960.3 0.0
16 22.08 СВ 5 н/о н/о +21.2 +14.4 65 +24 +24 комфорт 1021.6 960.7
17 22.08 В 7 н/о н/о +19.4 +13.9 70 +20 +20 1022.3 961.0
18 22.08 В 9 н/о н/о +18.4 +13.4 73 +18 +18 1023.1 961.5 +14.4 +23.1 0.0
19 22.08 СВ 8 н/о н/о +18.0 +13.1 73 +17 +17 1024.4 962.7
20 22.08 СВ 7 н/о н/о +18.0 +13.0 73 +17 +17 1025.1 963.3
21 22.08 СВ 6 н/о н/о +17.9 +12.8 72 +17 +17 1025.1 963.3
22 22.08 СВ 4 н/о н/о +18.0 +12.9 72 +18 +18 1025.3 963.5
23 22.08 В 2 н/о н/о +17.4 +13.0 75 +18 +18 1025.5 963.6
00 23.08 С 1 н/о н/о +17.2 +13.2 77 +18 +18 1025.3 963.3
01 23.08 штиль 0 н/о н/о +16.8 +13.8 82 +17 +17 1025.3 963.3
02 23.08 З 1 н/о н/о +16.5 +14.0 85 +17 +17 1025.4 963.3
03 23.08 С 1 н/о н/о +16.8 +13.5 81 +18 +18 1025.0 963.0
04 23.08 З 1 н/о н/о +16.5 +13.9 85 +17 +17 1025.0 962.9
05 23.08 штиль 0 н/о н/о +16.6 +14.0 85 +16 +16 1025.3 963.2
06 23.08 В 2 н/о н/о +16.7 +13.7 82 +17 +17 1025.4 963.3 +16.4 +18.6
07 23.08 В 2 н/о н/о +17.1 +13.8 81 +17 +17 1025.3 963.3
08 23.08 В 1 н/о н/о +17.7 +13.9 78 +19 +19 1024.9 963.1
09 23.08 В 2 н/о н/о +18.1 +14.1 77 +19 +19 1024.6 962.9
10 23.08 В 1 н/о н/о +19.3 +14.3 73 +22 +22 комфорт 1023.8 962.4
11 23.08 В 3 н/о н/о +21.7 +14.7 64 +25 +25 комфорт 1022.7 961.8
12 23.08 В 5 н/о н/о +23.0 +14.7 60 +27 +27 душно 1021.7 961.2
13 23.08 В 6 н/о н/о +23.1 +14.7 59 +27 +27 душно 1020.9 960.4
14 23.08 СВ 4 н/о н/о +23.2 +15.2 61 +27 +27 душно 1020.7 960.3
15 23.08 В 3 н/о н/о +22.7 +15.9 65 +27 +27 душно 1020.8 960.3 0.0
16 23.08 СВ 2 н/о н/о +22.4 +16.2 68 +27 +27 душно 1020.6 960.0 0.0
17 23.08 СВ 4 н/о н/о +21.8 +15.8 69 +25 +25 комфорт 1020.6 959.9
18 23.08 СВ 5 н/о н/о +21.0 +15.7 72 +24 +24 комфорт 1021.2 960.3 +16.7 +23.6 0.0
19 23.08 СВ 3 н/о н/о +20.6 +15.3 72 +24 +24 комфорт 1022.0 961.0
20 23.08 ЮЗ 2 н/о н/о +19.0 +15.9 82 +21 +21 комфорт 1022.2 960.9 0.0
21 23.08 В 2 н/о н/о +19.5 +15.7 79 +22 +22 комфорт 1021.5 960.3 0.0
22 23.08 штиль 0 н/о н/о +18.9 +15.8 82 +20 +20 1021.8 960.5
23 23.08 штиль 0 н/о н/о +17.9 +16.0 89 +18 +18 1021.9 960.4
00 24.08 штиль 0 н/о н/о +17.7 +16.0 90 +18 +18 1021.8 960.2 0.0
01 24.08 штиль 0 н/о н/о +17.4 +15.9 91 +17 +17 1021.7 960.1
02 24.08 ЮЗ 1 н/о н/о +16.7 +15.4 92 +18 +18 1021.8 960.0
03 24.08 штиль 0 н/о н/о +16.2 +15.1 93 +16 +16 1021.8 959.9
04 24.08 ЮЗ 3 н/о н/о +16.5 +15.0 91 +16 +16 1021.6 959.8
05 24.08 штиль 0 н/о н/о +16.0 +14.4 90 +16 +16 1021.9 959.9
06 24.08 ЮЗ 2 н/о н/о +17.2 +15.3 89 +18 +18 1021.3 959.6 +15.9 +21.1 0.0
07 24.08 ЮЗ 5 н/о н/о +17.6 +15.3 86 +17 +17 1020.9 959.3
08 24.08 ЮЗ 6 н/о н/о +18.8 +15.2 80 +19 +19 1020.4 959.1
09 24.08 ЮЗ 5 н/о н/о +21.4 +16.1 72 +25 +25 комфорт 1019.4 958.7
10 24.08 ЮЗ 2 н/о н/о +23.5 +16.1 63 +27 +27 душно 1018.6 958.4
11 24.08 С 1 н/о н/о +25.4 +16.4 57 +29 +29 душно 1017.5 957.7
12 24.08 ЮЗ 1 н/о н/о +25.6 +16.3 56 +29 +29 душно 1016.8 957.1
13 24.08 В 2 н/о н/о +26.4 +15.5 51 +29 +29 жарко 1016.6 957.0
14 24.08 З 2 н/о н/о +23.7 +17.7 69 +28 +28 душно 1017.7 957.6 0.0
15 24.08 З 1 н/о ливневой дождь н/о +21.0 +17.1 78 +26 +26 душно 1018.4 957.7 0.0
16 24.08 С 7
{13}
н/о в посл. час осадки н/о +22.8 +14.5 59 +26 +26 жарко 1018.1 957.7 0.0
17 24.08 С 6
{13}
н/о н/о +22.3 +14.2 60 +26 +26 жарко 1019.0 958.5
18 24.08 СВ 5
{13}
н/о {ливн. осадки} н/о +20.5 +15.5 73 +23 +23 комфорт 1019.6 958.7 +16.8 +26.8 0.0
19 24.08 В 5 н/о н/о +18.9 +15.1 79 +20 +20 1020.5 959.2 0.0
20 24.08 СВ 2 н/о н/о +18.3 +15.0 81 +19 +19 1021.1 959.7
21 24.08 З 1 н/о н/о +17.1 +15.0 87 +18 +18 1020.9 959.2 0.0
22 24.08 ЮЗ 2 н/о н/о +16.8 +14.9 89 +17 +17 1020.6 958.9
23 24.08 С 1 н/о н/о +16.7 +14.9 89 +18 +18 1020.7 959.0
00 25.08 З 1 н/о н/о +15.7 +14.3 91 +16 +16 1020.6 958.6 0.0
01 25.08 штиль 0 н/о н/о +15.7 +14.6 93 +15 +15 1020.9 958.9
02 25.08 штиль 0 н/о н/о +15.2 +14.2 94 +15 +15 1020.8 958.7
03 25.08 ЮЗ 1 н/о н/о +14.3 +13.5 95 +15 +15 1020.9 958.6
04 25.08 З 1 н/о н/о +15.0 +14.2 95 +15 +15 1021.0 958.9
05 25.08 Ю 1 н/о н/о +14.2 +13.3 94 +14 +14 1021.3 959.0
06 25.08 З 1 н/о н/о +15.0 +13.9 93 +15 +15 1021.4 959.2 +14.1 +20.9 0.0
07 25.08 штиль 0 н/о н/о +17.2 +14.5 84 +17 +17 1020.9 959.2
08 25.08 ЮЗ 2 н/о н/о +19.7 +15.8 78 +22 +22 комфорт 1020.0 958.9
09 25.08 ЮЗ 3 н/о н/о +21.2 +15.4 69 +24 +24 комфорт 1019.3 958.6
10 25.08 ЮЗ 2 н/о н/о +22.3 +14.9 63 +26 +26 жарко 1018.6 958.1
11 25.08 штиль 0 н/о н/о +23.8 +15.0 58 +27 +27 жарко 1017.7 957.6
12 25.08 В 1 н/о н/о +25.4 +14.7 52 +28 +28 жарко 1017.1 957.3
13 25.08 В 6 н/о н/о +26.6 +15.1 49 +29 +29 жарко 1016.1 956.6

 

Местоположение метеостанции Енбах (Австрия): широта 47.38 долгота 11.75 высота над уровнем моря 530 м.

В архиве по умолчанию представлена погода в Енбахе за последнюю неделю. Архивные данные за месяц целиком и за предыдущие месяцы, начиная с января 2011 года, Вы можете получить, выбрав интересующий диапазон дат из раскрывающегося списка и нажав кнопку "Ввод!".


*Определитесь, кто Вы:
робот инопланетянин человек

Внимание! Время в таблицах - всемирное. Для получения местного времени необходимо прибавить поправку, которая равна 1 ч.

Смотрите также архив погоды в соседних городах и на ближайших метеорологических станциях:

Погода в Ахенкирьхе (Австрия) (14 км)
Погода в Ахенкирьхе (Австрия) (16 км)
Погода в Майрхофене (Австрия) (25 км)
Погода в Пачеркофеле (Австрия) (28 км)
Погода в Инсбруке (Австрия) (33 км)
Погода в Инсбруке АМС (Австрия) (33 км)
Погода в Кримле (Австрия) (36 км)
Погода в Куфштайне (Австрия) (39 км)
Погода в Зефельд-ин-Тироль (Австрия) (43 км)
Погода в Бреннере новая (Австрия) (45 км)

Пояснения к столбцам:

Ветер - указаны скорость ветра в м/с - средняя за 10 мин, порывы в срок и между сроками (в фигурных скобках) и направление, откуда дует ветер: С - северный, СВ - северо-восточный, В - восточный, ЮВ - юго-восточный, Ю - южный, ЮЗ - юго-западный, З - западный, СЗ - северо-западный.
Видимость - горизонтальная дальность видимости в метрах или километрах. При видимости от 1 до 10 км при отсутствии осадков обычно наблюдается дымка, при ухудшении видимости до 1 км и менее - туман. В сухую погоду видимость может ухудшаться дымом, пылью или мглою.
Явления - указаны атмосферные явления, наблюдавшиеся в срок или в последний час перед сроком; фигурными скобками обозначены явления, наблюдавшиеся между сроками (за 1-3 часа до срока); квадратными скобками обозначены град или гололедные отложения с указанием их диаметра в мм.
Облачность - указаны через наклонную черту общая и нижняя облачность в баллах и высота нижней границы облаков в метрах; квадратными скобками обозначены формы облаков: Ci - перистые, Cs - перисто-слоистые, Cc - перисто-кучевые, Ac - высококучевые, As - высокослоистые, Sc - слоисто-кучевые, Ns - слоисто-дождевые, Cu - кучевые, Cb - кучево-дождевые. Подробнее классификацию облаков см. в Атласе облаков (PDF).
T - Температура воздуха - температура, измеренная на высоте 2 м над землей.
Td - Температура точки росы - температура, при понижении до которой содержащийся в воздухе водяной пар достигнет насыщения.
f - Относительная влажность воздуха - влажноcть воздуха, измеренная на высоте 2 м над землей.
Te - Эффективная температура - температура, которую ощущает одетый по сезону человек в тени. Характеристика душности погоды. При расчете учитывается влияние влажности воздуха и скорости ветра на теплоощущения человека.
Tes - Эффективная температура на солнце - температура, которую ощущает человек, с поправкой на солнечный нагрев. Характеристика знойности погоды. Зависит от высоты солнца над горизонтом, облачности и скорости ветра. Ночью, в пасмурную погоду, а также при ветре 12 м/с и более поправка равна нулю.
P - Атмосферное давление - приведенное к уровню моря атмосферное давление.
Po - Атмосферное давление - измеренное на уровне метеостанции атмосферное давление.
Tmin - Минимальная температура - минимум температуры воздуха на высоте 2 м над землей.
Tmax - Максимальная температура - максимум температуры воздуха на высоте 2 м над землей.
R - Количество осадков - Количество выпавших осадков за период времени, мм. При наведении курсора мыши на число - период времени, за который выпало указанное количество осадков.
R24 - Количество осадков - Количество выпавших осадков за 24 часа, мм.
S - Снежный покров - Высота снежного покрова, см. При наведении курсора мыши на число - состояние снежного покрова и степень покрытия местности в баллах.